SCP
0 0 0 0 0 0 0 0 0 0 0 0 0 0 0 0 0 0 0 0 0 0 0 0 0 0 0 0 0 0 0 0 0 0 0 0 0 0 0 0 0 0 0
0 0 0 0 0 0 0 0 0 0 0 0 0 0 0 0 0 0 0 0 0 0 0 0 0 0 0 0 0 0 0 0 0 0 0 0 0 0 0 0 0 0 0
0 0 0 0 0 0 0 0 0 0 0 0 0 0 0 0 0 0 0 0 0 0 0 0 0 0 0 0 0 0 0 0 0 0 0 0 0 0 0 0 0 0 0
0 0 0 0 0 0 0 0 0 0 0 0 0 0 0 0 0 0 0 0 0 0 0 0 0 0 0 0 0 0 0 0 0 0 0 0 0 0 0 0 0 0 0
0 0 0 0 0 0 0 0 0 0 0 0 0 0 0 0 0 0 0 0 0 0 0 0 0 0 0 0 0 0 0 0 0 0 0 0 0 0 0 0 0 0 0
0 0 0 0 0 0 0 0 0 0 0 0 0 0 0 0 0 0 0 0 0 0 0 0 0 0 0 0 0 0 0 0 0 0 0 0 0 0 0 0 0 0 0
0 0 0 0 0 0 0 0 0 0 0 0 0 0 0 0 0 0 0 0 0 0 0 0 0 0 0 0 0 0 0 0 0 0 0 0 0 0 0 0 0 0 0
0 0 0 0 0 0 0 0 0 0 0 0 0 0 0 0 0 0 0 0 0 0 0 0 0 0 0 0 0 0 0 0 0 0 0 0 0 0 0 0 0 0 0
0 0 0 0 0 0 0 0 0 0 0 0 0 0 0 0 0 0 0 0 0 0 0 0 0 0 0 0 0 0 0 0 0 0 0 0 0 0 0 0 0 0 0
0 0 0 0 0 0 0 0 0 0 0 0 0 0 0 0 0 0 0 0 0 0 0 0 0 0 0 0 0 0 0 0 0 0 0 0 0 0 0 0 0 0 0
0 0 0 0 0 0 0 0 0 0 0 0 0 0 0 0 0 0 0 0 0 0 0 0 0 0 0 0 0 0 0 0 0 0 0 0 0 0 0 0 0 0 0
0 0 0 0 0 0 0 0 0 0 0 0 0 0 0 0 0 0 0 0 0 0 0 0 0 0 0 0 0 0 0 0 0 0 0 0 0 0 0 0 0 0 0
0 0 0 0 0 0 0 0 0 0 0 0 0 0 0 0 0 0 0 0 0 0 0 0 0 0 0 0 0 0 0 0 0 0 0 0 0 0 0 0 0 0 0
0 0 0 0 0 0 0 0 0 0 0 0 0 0 0 0 0 0 0 0 0 0 0 0 0 0 0 0 0 0 0 0 0 0 0 0 0 0 0 0 0 0 0
0 0 0 0 0 0 0 0 0 0 0 0 0 0 0 0 0 0 0 0 0 0 0 0 0 0 0 0 0 0 0 0 0 0 0 0 0 0 0 0 0 0 0
0 0 0 0 0 0 0 0 0 0 0 0 0 0 0 0 0 0 0 0 0 0 0 0 0 0 0 0 0 0 0 0 0 0 0 0 0 0 0 0 0 0 0
0 0 0 0 0 0 0 0 0 0 0 0 0 0 0 0 0 0 0 0 0 0 0 0 0 0 0 0 0 0 0 0 0 0 0 0 0 0 0 0 0 0 0
0 0 0 0 0 0 0 0 0 0 0 0 0 0 0 0 0 0 0 0 0 0 0 0 0 0 0 0 0 0 0 0 0 0 0 0 0 0 0 0 0 0 0
0 0 0 0 0 0 0 0 0 0 0 0 0 0 0 0 0 0 0 0 0 0 0 0 0 0 0 0 0 0 0 0 0 0 0 0 0 0 0 0 0 0 0
0 0 0 0 0 0 0 0 0 0 0 0 0 0 0 0 0 0 0 0 0 0 0 0 0 0 0 0 0 0 0 0 0 0 0 0 0 0 0 0 0 0 0
-0 -0 -0 0 0 0 0 0 0 0 0 0 0 0 0 0 0 0 0 0 0 0 0 0 0 0 0 0 0 0 0 0 0 0 0 0 0 0 0 0 0 0 0
0 0 0 0 0 0 0 0 0 0 0 0 0 0 0 0 0 0 0 0 0 0 0 0 0 0 0 0 0 0 0 0 0 0 0 0 0 0 0 0 0 0 0
0 0 0 0 0 0 0 0 0 0 0 0 0 0 0 0 0 0 0 0 0 0 0 0 0 0 0 0 0 0 0 0 0 0 0 0 0 0 0 0 0 0 0
0 0 0 0 0 0 0 0 0 0 0 0 0 0 0 0 0 0 0 0 0 0 0 0 0 0 0 0 0 0 0 0 0 0 0 0 0 0 0 0 0 0 0
0 0 0 0 0 0 0 0 0 0 0 0 0 0 0 0 0 0 0 0 0 0 0 0 0 0 0 0 0 0 0 0 0 0 0 0 0 0 0 0 0 0 0
0 0 0 0 0 0 0 0 0 0 0 0 0 0 0 0 0 0 0 0 0 0 0 0 0 0 0 0 0 0 0 0 0 0 0 0 0 0 0 0 0 0 0
Wind_Speed
5 5 5 5 6 5 5 5 4 4 3 3 2 3 3 3 3 3 3 5 7 6 1 2 3 4 5 5 6 8 9 8 7 7 8 8 8 8 8 9 10 10 10
5 5 5 5 6 6 5 5 5 5 4 3 3 3 3 3 3 3 3 4 9 10 7 3 0 3 5 6 6 7 8 7 6 7 8 7 7 6 6 8 10 10 10
7 6 5 5 5 6 6 5 5 4 4 4 4 3 2 3 3 2 2 2 3 9 11 10 6 1 5 6 5 6 8 8 7 8 7 6 7 8 8 8 9 9 10
7 6 5 5 5 5 5 5 5 4 4 4 4 3 3 3 3 2 2 2 2 3 7 10 10 8 6 5 5 7 8 8 8 7 6 7 8 8 8 8 8 10 10
6 5 5 5 6 5 5 5 5 5 4 4 4 3 3 3 2 2 3 3 3 3 3 5 8 8 6 3 4 6 7 7 7 7 7 7 7 7 7 8 8 9 9
6 5 4 6 6 6 5 6 7 5 5 5 5 3 3 3 2 2 3 3 2 2 2 2 2 4 5 1 3 6 7 8 8 7 6 5 5 5 6 6 7 8 8
6 5 4 5 5 6 7 8 6 7 5 5 5 2 1 1 2 3 2 3 2 2 2 2 1 1 2 5 2 7 9 9 7 5 4 4 4 4 4 5 6 7 8
4 4 5 5 6 5 6 7 7 6 4 6 6 4 2 2 3 4 3 4 4 3 3 3 3 2 2 3 6 9 10 9 6 4 3 2 3 3 4 5 6 7 7
2 4 5 4 6 6 7 8 9 11 7 6 5 7 7 7 3 3 5 4 5 4 3 3 4 4 4 4 4 6 9 8 6 4 3 2 3 4 4 5 6 7 7
2 3 4 4 4 5 6 7 8 7 8 8 5 4 4 6 6 4 3 4 5 5 5 4 4 5 5 5 7 9 8 7 6 4 2 2 2 3 4 5 6 6 7
3 3 3 4 4 5 6 6 7 8 5 7 6 4 3 2 4 6 4 4 4 4 5 6 5 4 5 7 6 8 10 9 7 5 4 3 2 2 3 4 5 6 7
2 3 4 4 5 4 6 6 7 9 8 7 6 5 6 6 6 5 5 4 4 4 5 5 6 6 6 7 9 14 12 11 10 8 6 5 3 2 2 3 4 5 6
4 4 4 4 4 5 6 6 6 7 9 9 8 7 6 5 5 5 5 5 4 3 4 5 6 7 7 6 8 16 13 12 11 10 8 6 4 3 1 1 3 4 4
5 7 6 5 6 6 6 6 6 6 7 9 9 8 6 6 5 5 6 7 5 3 4 6 5 8 8 7 11 18 9 14 14 12 10 8 6 5 3 1 1 2 3
7 9 8 7 6 6 6 6 5 6 7 8 8 9 7 6 6 6 5 6 9 8 10 9 7 8 9 8 15 10 9 15 16 14 13 11 9 8 6 3 2 0 2
8 9 9 9 8 7 6 6 6 7 7 7 6 8 9 6 6 6 5 5 6 8 9 10 8 7 10 9 16 10 9 18 17 15 14 13 11 10 8 6 4 3 1
7 7 8 8 8 8 7 6 7 8 8 8 8 9 10 8 7 6 5 5 5 5 6 4 4 5 10 9 10 8 7 8 8 15 15 14 13 11 10 8 7 5 3
7 7 7 7 8 8 8 8 8 8 9 9 9 10 11 8 11 8 7 8 7 6 6 6 4 5 7 12 10 9 7 7 6 14 16 15 14 13 12 10 9 6 5
8 8 7 7 7 8 8 8 8 9 10 10 10 11 11 11 13 9 9 9 8 6 5 6 6 4 3 8 10 7 7 5 7 9 14 15 15 15 14 12 11 8 6
8 8 8 8 8 8 9 9 9 9 10 11 11 12 12 13 13 12 11 12 9 9 7 5 5 5 4 7 9 8 7 7 6 6 10 11 14 16 16 14 12 10 8
9 8 9 10 10 9 8 10 10 10 11 12 12 13 14 16 18 15 13 11 11 11 10 8 6 5 7 10 12 10 10 7 6 6 6 6 7 7 8 12 12 11 10
9 9 10 11 12 12 19 23 18 12 12 13 14 14 14 15 18 23 25 22 20 17 16 15 12 11 14 11 11 12 11 9 8 9 9 8 7 8 6 5 11 13 12
11 14 14 13 14 17 27 28 25 16 14 15 15 15 13 12 14 14 20 26 26 31 29 20 18 18 14 15 16 16 16 12 10 10 11 8 8 9 6 8 16 15 13
13 15 17 17 19 23 31 32 30 20 17 17 17 17 17 16 15 16 14 16 19 22 26 22 19 15 11 14 18 17 15 8 5 6 9 7 7 6 6 6 15 15 13
16 16 18 18 20 24 33 36 35 17 17 20 18 18 18 19 24 27 20 19 20 20 27 27 22 16 15 21 20 11 12 11 5 6 6 7 7 5 5 5 9 15 14
19 20 21 20 20 22 31 38 39 18 19 19 17 17 21 26 27 29 21 19 22 20 13 15 20 19 14 18 30 21 17 16 8 8 10 9 7 7 6 4 5 6 8
Wind_Direction
164 164 163 165 165 161 155 150 166 165 154 152 143 119 87 67 55 62 89 42 25 9 354 167 176 169 157 141 130 121 113 106 95 87 80 68 66 69 72 73 73 66 59
162 166 172 169 166 160 151 150 164 159 160 146 137 110 99 94 68 37 104 72 41 31 30 48 163 179 169 142 133 131 122 108 93 84 75 59 60 67 69 70 67 61 57
164 166 174 173 165 150 146 149 156 151 151 145 143 125 101 80 92 59 61 97 71 45 37 34 24 145 163 150 144 139 120 105 93 83 70 57 60 63 66 62 56 55 56
165 164 170 174 161 145 145 154 155 152 154 153 150 143 122 94 88 92 71 59 71 70 50 46 41 51 76 115 132 121 113 105 93 84 77 68 60 53 49 49 49 50 49
174 166 171 170 158 149 154 163 159 153 157 159 145 134 131 132 129 125 107 81 61 73 85 59 44 37 45 79 134 134 126 114 102 90 80 71 61 49 44 43 43 44 43
179 169 168 172 160 157 166 170 168 167 153 148 125 117 130 137 158 160 145 112 92 86 110 107 46 22 27 85 168 161 143 123 105 92 83 75 64 52 44 40 38 38 38
175 173 166 171 167 176 184 174 164 160 148 137 107 95 60 147 190 181 170 153 165 150 125 135 129 83 29 63 105 156 139 126 116 101 86 72 60 48 43 42 40 39 37
171 177 178 176 174 179 191 188 170 157 153 164 141 130 155 260 248 196 183 176 176 168 172 179 162 164 115 79 94 112 123 127 124 114 97 75 59 50 47 47 44 42 40
196 190 201 194 188 188 198 198 189 173 168 192 189 156 160 193 196 210 199 185 179 176 183 179 178 189 150 122 105 115 122 127 129 126 108 77 60 52 48 47 43 40 40
300 227 220 226 209 207 213 209 204 201 168 180 219 221 173 150 151 173 219 206 191 187 184 181 188 197 164 137 140 142 141 141 142 141 134 105 71 57 53 50 43 37 36
285 297 262 243 240 221 227 225 212 215 206 188 189 176 182 191 155 144 177 204 212 205 183 178 184 201 173 152 150 159 162 165 168 169 166 152 124 84 63 55 46 39 34
299 269 280 271 259 245 229 235 224 218 226 222 211 190 170 172 185 163 155 170 196 207 188 180 186 196 191 172 168 167 172 180 184 185 183 178 167 140 89 52 42 36 30
343 310 271 263 265 263 253 240 237 226 225 231 225 222 213 201 171 164 143 149 161 180 180 194 192 190 195 175 169 170 179 187 193 194 194 195 191 177 146 44 33 28 24
341 341 329 295 272 269 269 258 250 240 230 233 242 239 229 224 205 186 160 147 146 173 193 204 191 193 190 174 181 177 184 190 196 197 199 203 206 204 200 197 28 17 12
348 341 334 328 309 284 273 271 262 254 240 234 238 246 247 236 227 213 183 165 161 176 208 207 195 193 187 175 186 181 181 195 198 199 201 205 210 211 208 202 200 306 346
350 346 341 331 321 310 291 277 270 260 252 244 235 240 245 243 240 229 216 201 186 183 200 195 193 183 179 183 187 181 191 195 201 202 204 207 211 214 212 208 206 215 271
341 342 340 333 324 313 302 288 274 266 258 254 246 241 241 235 237 232 227 222 210 186 190 183 167 162 169 179 184 182 186 186 200 208 207 207 212 216 217 215 213 219 232
327 325 326 327 323 316 306 293 283 273 262 257 251 246 243 234 234 224 218 222 221 209 177 168 168 159 179 184 177 181 187 191 198 208 206 207 213 218 221 220 219 226 235
318 315 313 310 309 308 303 292 281 274 266 259 252 250 247 235 235 224 217 218 218 220 205 165 166 158 157 174 168 178 189 192 201 207 207 210 216 220 224 223 225 231 235
304 303 302 296 291 289 290 286 282 276 271 265 257 253 249 241 238 226 223 220 211 213 213 187 166 160 154 164 169 176 189 194 194 195 209 210 217 223 225 225 228 232 229
289 287 288 288 286 283 277 278 277 272 273 272 266 259 254 249 242 231 227 220 210 214 211 204 189 165 173 171 186 182 192 182 197 191 191 202 201 208 213 226 229 226 218
290 287 282 280 279 280 285 287 283 273 268 268 269 264 258 252 250 243 235 224 214 214 215 213 209 202 197 190 179 179 174 170 200 195 186 200 191 203 201 199 219 215 207
289 292 289 285 280 278 283 284 281 276 268 265 264 264 260 251 244 245 245 238 229 225 220 217 220 218 201 191 183 184 187 185 193 176 172 189 186 201 191 207 212 208 204
290 289 288 288 287 284 285 284 283 278 269 263 259 257 258 256 244 239 237 237 235 233 228 224 227 224 205 191 192 192 191 167 86 150 161 171 173 186 181 191 206 201 202
295 291 287 285 283 284 287 288 287 281 272 266 260 255 252 254 251 244 238 236 238 238 237 228 226 223 214 197 185 172 169 167 163 178 173 154 154 154 164 183 198 204 204
295 294 290 289 287 286 287 288 288 283 275 269 263 255 249 250 251 248 239 233 236 235 220 224 224 222 213 203 193 188 182 184 171 173 179 162 153 149 168 185 188 191 191